Find Starlink 32457

NORAD ID: 61717 Int'l Des: 2024-196 Owner: SPXS Country: US Constellation: starlink operational
LEOCIRCULAR

Live Position

Loading 3D Globe...

About Starlink 32457

Description loading...

Upcoming Passes

Passes for default location (London). Set your location on the main map for personalized predictions.

Altitude History

Loading altitude history...

Two-Line Element Set

1 61717U 24196L 26132.79616889 .00001815 00000-0 73425-4 0 9992
2 61717 53.1591 163.4209 0001091 92.1725 267.9401 15.30186368 86970
Epoch: May 12, 2026 • Age: 6 hours

Current Status

Altitude 483.7 km
Velocity 7.62 km/s
Sub-Earth Point -26.92°S, 109.25°W
Launch Date Oct 30, 2024
Age 1.5 years
Type internet

Technical Details

Classification Payload
Mass 730.00 kg
Dry Mass 700.00 kg
Total Mass 730.00 kg
Length 0.30 m
Diameter 4.10 m
Span 29.00 m
Shape Box + pan
Manufacturer SPXS
Bus Type Starlink V2M
Phase Status In Orbit
Owner/State SPXS/US

Most Searched